[[{"header":{"parameterUnit":"m.s-1","parameterCategory":1,"la1":30.2991,"la2":30.254,"lo1":-89.0895,"lo2":-89.0444,"dy":0.0017,"dx":0.0017,"nx":28,"ny":28,"refTime":"2025-08-06T03:00:00:Z","depth":0,"parameterNumber":2,"parameterNumberName":"U-component_of_WINDS"},"data":[0,0,0,0,0,0,0,0,0,0,0,0,0,0,0,0,0,0,0,0,0,0,0,0,0,0,0,0,0,0,0,0,0,0,0,0,0,0,0,0,0,0,0,0,0,0,0,0,0,0,0,0,0,0,0,0,0,0,-3.4694,-3.4694,0,-3.4693,-3.4693,-3.4693,-3.4572,-3.4569,-3.4566,-3.4563,-3.4562,-3.4565,-3.4568,0,0,0,0,0,0,0,0,0,0,0,0,0,-3.4593,-3.4595,-3.4694,-3.4694,-3.4694,-3.4693,-3.4693,-3.4693,-3.4573,-3.4569,-3.4565,-3.4561,-3.4561,-3.4565,-3.4568,0,0,0,0,0,0,0,0,0,0,0,0,0,-3.4619,-3.4596,-3.4694,-3.4634,-3.4629,-3.4693,-3.4693,-3.4693,-3.4574,-3.4569,-3.4564,-3.456,-3.456,-3.4564,-3.4569,-3.469,0,0,-3.4582,-3.4584,0,0,0,0,0,0,0,0,-3.4617,-3.4623,-3.4643,-3.4638,-3.4632,-3.4628,-3.4657,-3.4692,-3.4575,-3.4595,-3.4563,-3.4557,-3.4588,-3.459,-3.46,-3.469,-3.469,-3.4582,-3.4585,-3.4587,-3.4588,0,0,0,0,0,0,0,-3.4616,-3.4622,-3.4694,-3.4643,-3.4637,-3.4607,-3.4606,-3.4663,-3.4618,-3.4592,-3.4584,-3.4585,-3.4584,-3.4596,-3.4599,-3.469,-3.4582,-3.4586,-3.4589,-3.4591,-3.4879,-3.4883,0,0,0,0,0,0,-3.4622,-3.4621,-3.4694,-3.4694,-3.4613,-3.4613,-3.4611,-3.4634,-3.4617,-3.461,-3.4589,-3.4579,-3.4591,-3.4594,-3.4598,-3.4738,-3.4587,-3.4591,-3.4594,-3.4874,-3.488,-3.4885,0,0,0,0,0,0,-3.4621,-3.463,-3.4694,-3.4655,-3.4661,-3.462,-3.4646,-3.4637,-3.4648,-3.4614,-3.4606,-3.4609,-3.4587,-3.4592,-3.4668,-3.4736,-3.4593,-3.4597,-3.4868,-3.4876,-3.4882,-3.502,0,0,0,0,0,0,-3.4618,-3.463,-3.4676,-3.4657,-3.4663,-3.4764,-3.4651,-3.464,-3.4656,-3.4643,-3.4631,-3.4625,-3.4584,-3.4662,-3.4672,-3.474,-3.46,-3.4861,-3.4871,-3.488,-3.5009,-3.5031,-3.505,0,0,0,0,0,-3.4615,-3.4715,-3.4679,-3.4688,-3.472,-3.4768,-3.4771,-3.4722,-3.4662,-3.4707,-3.4686,-3.4625,-3.4728,-3.4671,-3.4681,-3.4751,-3.4857,-3.4868,-3.4879,-3.5,-3.5027,-3.505,0,0,0,0,0,0,-3.4744,-3.4712,-3.4671,-3.4768,-3.4772,-3.4747,-3.4803,-3.4753,-3.4774,-3.4761,-3.47,-3.4698,-3.4783,-3.4775,-3.4712,-3.4867,-3.4781,-3.4795,-3.4869,-3.4895,-3.4915,-3.4914,-3.4604,0,0,0,0,0,-3.4783,-3.4825,-3.4795,-3.4883,-3.4887,-3.4846,-3.4864,-3.4826,-3.4827,-3.4828,-3.4812,-3.4816,-3.4848,-3.4871,-3.49,-3.5008,-3.5002,-3.5061,-3.5082,-3.5099,-3.5111,-3.5166,-3.5191,-3.4922,-3.4922,-3.4922,0,0,-3.4866,-3.4853,-3.4883,-3.4909,-3.4907,-3.4951,-3.4847,-3.4899,-3.493,-3.4836,-3.4906,-3.4894,-3.4894,-3.4986,-3.5026,-3.4982,-3.5184,-3.5113,-3.5127,-3.513,-3.518,-3.5205,-3.5228,-3.493,-3.4929,-3.4927,0,0,-3.5038,-3.5034,-3.5106,-3.5106,-3.5104,-3.5076,-3.5093,-3.5077,-3.5065,-3.5134,-3.5064,-3.5101,-3.516,-3.5162,-3.5171,-3.5343,-3.5288,-3.5354,-3.5461,-3.5516,-3.5537,-3.5555,-3.5615,-3.5637,-3.5367,-3.5368,-3.5368,0,-3.514,-3.5204,-3.515,-3.5205,-3.5218,-3.5134,-3.5206,-3.5209,-3.5218,-3.5228,-3.5179,-3.5249,-3.5244,-3.5334,-3.5376,-3.5387,-3.5404,-3.5355,-3.5538,-3.5556,-3.5572,-3.5629,-3.5652,-3.5375,-3.5375,-3.5374,-3.5373,0,-3.5329,-3.5374,-3.5433,-3.5442,-3.5461,-3.5525,-3.548,-3.5507,-3.5467,-3.5444,-3.5515,-3.5505,-3.5529,-3.5548,-3.551,-3.5633,-3.5606,-3.5549,-3.5461,-3.5607,-3.5659,-3.568,-3.5387,-3.5384,-3.5382,-3.538,0,0,-3.5582,-3.5559,-3.5582,-3.5584,-3.5576,-3.5609,-3.5669,-3.5692,-3.5716,-3.5724,-3.5772,-3.5823,-3.577,-3.578,-3.5742,-3.579,-3.5925,-3.5726,-3.5725,-3.5762,-3.6058,-3.61,-3.6126,-3.5889,-3.5893,-3.5896,-3.6057,0,-3.5747,-3.5847,-3.5799,-3.5905,-3.5945,-3.5866,-3.5918,-3.5919,-3.5899,-3.593,-3.5908,-3.5944,-3.5872,-3.5877,-3.5921,-3.5899,-3.5983,-3.5887,-3.5932,-3.5934,-3.5933,-3.6153,-3.6198,-3.6351,-3.6078,-3.6081,-3.6084,0,-3.5952,-3.5968,-3.6078,-3.6061,-3.6076,-3.6124,-3.614,-3.6171,-3.617,-3.6152,-3.6164,-3.6114,-3.6171,-3.6086,-3.6163,-3.6099,-3.6114,-3.6106,-3.6111,-3.6112,-3.6017,-3.6159,-3.6399,-3.6421,-3.6115,-3.6113,-3.6111,0,-3.6123,-3.6173,-3.6244,-3.6249,-3.6231,-3.6266,-3.6261,-3.6255,-3.6272,-3.6287,-3.6296,-3.6319,-3.6331,-3.6349,-3.6306,-3.6248,-3.6389,-3.63,-3.6375,-3.6376,-3.6407,-3.6405,-3.6651,-3.6421,-3.642,-3.642,-3.6419,0,-3.6312,-3.6381,-3.632,-3.6364,-3.6439,-3.6384,-3.6461,-3.6447,-3.6442,-3.6481,-3.6416,-3.6454,-3.6396,-3.6429,-3.6397,-3.6465,-3.6471,-3.6458,-3.6448,-3.6463,-3.6464,-3.6471,-3.6458,-3.6426,-3.6425,-3.6423,-3.6422,0,-3.6515,-3.6477,-3.6549,-3.6526,-3.6522,-3.6579,-3.6559,-3.6599,-3.6574,-3.6625,-3.6633,-3.6595,-3.663,-3.659,-3.6622,-3.66,-3.6692,-3.6667,-3.6692,-3.6684,-3.6761,-3.6754,-3.7018,-3.7049,-3.6801,-3.6803,-3.6805,0,-3.6636,-3.6688,-3.6671,-3.6692,-3.669,-3.6726,-3.6742,-3.669,-3.671,-3.6712,-3.6751,-3.678,-3.6801,-3.6861,-3.6836,-3.686,-3.6834,-3.6925,-3.6837,-3.685,-3.6833,-3.683,-3.6834,-3.6943,-3.6946,-3.6948,-3.695,0,-3.6856,-3.6834,-3.686,-3.6879,-3.69,-3.6913,-3.6921,-3.6943,-3.6888,-3.6914,-3.6948,-3.6965,-3.6997,-3.7026,-3.7043,-3.7037,-3.6985,-3.6978,-3.6996,-3.7011,-3.7022,-3.7015,-3.6739,-3.6972,-3.697,-3.6968,-3.6967,-3.6966,-3.7021,-3.7062,-3.7056,-3.7086,-3.7087,-3.7095,-3.713,-3.711,-3.7138,-3.7159,-3.7127,-3.717,-3.7167,-3.7184,-3.7185,-3.7217,-3.7178,-3.7205,-3.7212,-3.7219,-3.7229,-3.7019,-3.7221,-3.722,-3.7219,-3.7219,-3.7218,0,-3.7235,-3.7227,-3.7255,-3.7268,-3.7292,-3.724,-3.7246,-3.7269,-3.7308,-3.7309,-3.733,-3.737,-3.7398,-3.7376,-3.7399,-3.743,-3.7406,-3.7438,-3.7434,-3.7433,-3.7264,-3.7245,-3.7456,-3.7456,-3.7456,-3.7456,-3.7456,-3.7456,-3.7349,-3.7416,-3.7393,-3.7459,-3.7451,-3.7491,-3.7499,-3.7507,-3.7507,-3.7554,-3.7577,-3.7561,-3.7553,-3.7575,-3.7599,-3.7591,-3.7602,-3.7642,-3.7626,-3.7469,-3.7445,-3.7423,-3.7404,-3.7646,-3.7646,-3.7792,-3.7794,-3.7795]},{"header":{"parameterUnit":"m.s-1","parameterCategory":1,"la1":30.2991,"la2":30.254,"lo1":-89.0895,"lo2":-89.0444,"dy":0.0017,"dx":0.0017,"nx":28,"ny":28,"refTime":"2025-08-06T03:00:00:Z","depth":0,"parameterNumber":3,"parameterNumberName":"V-component_of_WINDS"},"data":[0,0,0,0,0,0,0,0,0,0,0,0,0,0,0,0,0,0,0,0,0,0,0,0,0,0,0,0,0,0,0,0,0,0,0,0,0,0,0,0,0,0,0,0,0,0,0,0,0,0,0,0,0,0,0,0,0,0,-0.5386,-0.5386,0,-0.5436,-0.5436,-0.5437,-0.5465,-0.5465,-0.5465,-0.5465,-0.5517,-0.5519,-0.552,0,0,0,0,0,0,0,0,0,0,0,0,0,-0.5313,-0.5314,-0.5385,-0.5386,-0.5387,-0.5436,-0.5436,-0.5437,-0.5465,-0.5465,-0.5465,-0.5465,-0.5517,-0.5519,-0.552,0,0,0,0,0,0,0,0,0,0,0,0,0,-0.5352,-0.5314,-0.5385,-0.5407,-0.5409,-0.5436,-0.5436,-0.5437,-0.5465,-0.5465,-0.5465,-0.5465,-0.5516,-0.5518,-0.552,-0.553,0,0,-0.5526,-0.5527,0,0,0,0,0,0,0,0,-0.5349,-0.5354,-0.5403,-0.5405,-0.5408,-0.5444,-0.543,-0.5468,-0.5465,-0.5444,-0.5465,-0.5465,-0.5493,-0.5497,-0.5506,-0.5532,-0.5535,-0.5526,-0.5528,-0.5529,-0.5529,0,0,0,0,0,0,0,-0.5347,-0.5352,-0.5405,-0.5403,-0.5407,-0.5413,-0.5419,-0.5437,-0.5467,-0.5446,-0.5448,-0.5453,-0.5494,-0.5504,-0.5508,-0.5535,-0.5526,-0.5528,-0.5529,-0.553,-0.557,-0.557,0,0,0,0,0,0,-0.5341,-0.535,-0.5404,-0.5407,-0.5378,-0.5414,-0.5421,-0.5432,-0.5467,-0.5472,-0.5453,-0.5454,-0.5501,-0.5505,-0.5509,-0.5522,-0.5529,-0.553,-0.5531,-0.557,-0.557,-0.557,0,0,0,0,0,0,-0.5339,-0.5345,-0.5402,-0.5379,-0.5387,-0.5416,-0.5428,-0.5433,-0.5443,-0.5473,-0.5478,-0.5458,-0.5501,-0.5507,-0.5524,-0.5524,-0.5531,-0.5533,-0.557,-0.557,-0.557,-0.5548,0,0,0,0,0,0,-0.5337,-0.5344,-0.5349,-0.5379,-0.5388,-0.5416,-0.5428,-0.5434,-0.5446,-0.5449,-0.5478,-0.5483,-0.5502,-0.5521,-0.5526,-0.5527,-0.5535,-0.5571,-0.557,-0.557,-0.5549,-0.5547,-0.5545,0,0,0,0,0,-0.5334,-0.5341,-0.5349,-0.5355,-0.5394,-0.5416,-0.5421,-0.5442,-0.5446,-0.5451,-0.5469,-0.5482,-0.5523,-0.5523,-0.5529,-0.553,-0.5571,-0.557,-0.557,-0.5549,-0.5547,-0.5545,0,0,0,0,0,0,-0.5311,-0.5345,-0.5355,-0.5371,-0.539,-0.5421,-0.5427,-0.5439,-0.5457,-0.5459,-0.5483,-0.549,-0.5505,-0.5519,-0.5518,-0.554,-0.5548,-0.5549,-0.553,-0.5529,-0.5527,-0.5523,-0.5536,0,0,0,0,0,-0.5307,-0.5323,-0.5352,-0.5364,-0.5373,-0.5398,-0.5408,-0.5422,-0.5443,-0.5452,-0.5472,-0.5491,-0.5508,-0.5519,-0.5537,-0.555,-0.5557,-0.5554,-0.5553,-0.5551,-0.5552,-0.5559,-0.5558,-0.5569,-0.5569,-0.5569,0,0,-0.5301,-0.5322,-0.533,-0.536,-0.5376,-0.5391,-0.5405,-0.542,-0.5431,-0.5454,-0.5472,-0.5486,-0.551,-0.5525,-0.5533,-0.5538,-0.555,-0.5551,-0.5549,-0.5551,-0.5558,-0.5557,-0.5556,-0.5569,-0.5569,-0.5569,0,0,-0.5297,-0.5314,-0.5326,-0.5341,-0.5366,-0.5382,-0.5384,-0.5412,-0.5423,-0.5441,-0.5458,-0.5471,-0.55,-0.5516,-0.5528,-0.5527,-0.5539,-0.5532,-0.5523,-0.553,-0.5529,-0.5528,-0.5527,-0.5527,-0.5532,-0.5532,-0.5532,0,-0.5286,-0.5309,-0.533,-0.5344,-0.5356,-0.5376,-0.5387,-0.5402,-0.5431,-0.5438,-0.5443,-0.5479,-0.5496,-0.5515,-0.5514,-0.5523,-0.5527,-0.5529,-0.5527,-0.5527,-0.5527,-0.5526,-0.5525,-0.5531,-0.5531,-0.5531,-0.5532,0,-0.5294,-0.5309,-0.5316,-0.5342,-0.5355,-0.5367,-0.5389,-0.54,-0.5412,-0.5427,-0.5444,-0.5465,-0.5487,-0.5492,-0.5505,-0.5512,-0.5514,-0.5523,-0.5531,-0.5524,-0.5524,-0.5524,-0.553,-0.553,-0.553,-0.5531,0,0,-0.5278,-0.5315,-0.5316,-0.5328,-0.5355,-0.5367,-0.538,-0.54,-0.5408,-0.5427,-0.5438,-0.5461,-0.5468,-0.5482,-0.5496,-0.5502,-0.5498,-0.551,-0.551,-0.5506,-0.5506,-0.5499,-0.5499,-0.5506,-0.5506,-0.5506,-0.5504,0,-0.5278,-0.5302,-0.532,-0.5337,-0.535,-0.5369,-0.538,-0.5397,-0.5411,-0.5425,-0.5441,-0.5457,-0.5466,-0.5474,-0.548,-0.5497,-0.5499,-0.5498,-0.5516,-0.5517,-0.551,-0.5499,-0.5492,-0.5489,-0.5504,-0.5504,-0.5504,0,-0.5281,-0.5298,-0.5316,-0.534,-0.5346,-0.5356,-0.5375,-0.5388,-0.5407,-0.5417,-0.5431,-0.5445,-0.5459,-0.5465,-0.5483,-0.5482,-0.5491,-0.55,-0.55,-0.5503,-0.551,-0.5501,-0.5489,-0.5488,-0.5504,-0.5504,-0.5504,0,-0.5267,-0.5294,-0.5308,-0.5317,-0.5346,-0.5352,-0.5364,-0.5384,-0.5394,-0.5411,-0.5418,-0.5436,-0.5446,-0.5459,-0.5477,-0.5481,-0.5493,-0.5502,-0.5501,-0.5501,-0.5504,-0.5503,-0.5492,-0.5509,-0.5509,-0.5509,-0.5509,0,-0.5265,-0.5275,-0.5302,-0.531,-0.5322,-0.5342,-0.5352,-0.5366,-0.5383,-0.5394,-0.5411,-0.5421,-0.5445,-0.5457,-0.5472,-0.5484,-0.5488,-0.5496,-0.55,-0.5495,-0.5494,-0.5501,-0.5502,-0.5509,-0.5509,-0.5509,-0.5509,0,-0.5252,-0.527,-0.5286,-0.5311,-0.5318,-0.5325,-0.5346,-0.5355,-0.5369,-0.5383,-0.5387,-0.541,-0.5425,-0.5444,-0.5466,-0.5476,-0.5486,-0.5492,-0.548,-0.5482,-0.548,-0.548,-0.5474,-0.5473,-0.549,-0.549,-0.549,0,-0.5249,-0.5257,-0.5282,-0.5291,-0.5302,-0.5315,-0.5326,-0.5345,-0.5355,-0.5377,-0.5383,-0.5399,-0.5413,-0.5437,-0.5455,-0.5471,-0.5478,-0.5474,-0.548,-0.5474,-0.5477,-0.5476,-0.5477,-0.5473,-0.5473,-0.5472,-0.5472,0,-0.5242,-0.5251,-0.5265,-0.5282,-0.5293,-0.5307,-0.5323,-0.5328,-0.5351,-0.5361,-0.5376,-0.5387,-0.5409,-0.5424,-0.5443,-0.5455,-0.5467,-0.547,-0.547,-0.5465,-0.5458,-0.5461,-0.5475,-0.547,-0.547,-0.547,-0.5471,-0.5471,-0.5234,-0.5242,-0.526,-0.5275,-0.5288,-0.5301,-0.531,-0.5324,-0.5338,-0.5356,-0.5367,-0.5382,-0.5399,-0.5425,-0.5436,-0.5448,-0.5452,-0.5454,-0.5454,-0.5454,-0.5452,-0.5455,-0.5451,-0.5451,-0.5451,-0.5451,-0.5452,0,-0.5228,-0.524,-0.5254,-0.5273,-0.5284,-0.5294,-0.531,-0.5319,-0.5332,-0.5347,-0.536,-0.5377,-0.5392,-0.5411,-0.5427,-0.5432,-0.5438,-0.5436,-0.5436,-0.5438,-0.5447,-0.5445,-0.5431,-0.5431,-0.5431,-0.5431,-0.5431,-0.5431,-0.5226,-0.5239,-0.5249,-0.5267,-0.5279,-0.5294,-0.5302,-0.5314,-0.5326,-0.5344,-0.5356,-0.5368,-0.5384,-0.5401,-0.5415,-0.542,-0.5425,-0.5421,-0.5427,-0.5436,-0.5437,-0.5439,-0.5437,-0.5422,-0.5422,-0.5417,-0.5417,-0.5417]}]]